This is the latest recevied weather packets stored in our database for station/object K4KMJ. If no packets are shown the sender has not sent any weather packets the latest 10 day(s).
| Time | Temp. | Humidity | Pressure | Rain* | Wind** | Luminosity | Snow |
|---|---|---|---|---|---|---|---|
| 1788477138 | 27.22° C | 98% | 1016.2 hPa | 0 mm | - | 11 W/m² | - |
| 1788476834 | 27.22° C | 98% | 1016.3 hPa | 0 mm | - | 14 W/m² | - |
| 1788476528 | 27.22° C | 98% | 1016.3 hPa | 0 mm | - | 17 W/m² | - |
| 1788476224 | 27.22° C | 97% | 1016.2 hPa | 0 mm | - | 19 W/m² | - |
| 1788475921 | 27.78° C | 97% | 1016 hPa | 0 mm | - | 22 W/m² | - |
| 1788475616 | 27.78° C | 97% | 1015.9 hPa | 0 mm | - | 25 W/m² | - |
| 1788475313 | 27.78° C | 97% | 1016.2 hPa | 0 mm | - | 29 W/m² | - |
| 1788475007 | 27.78° C | 97% | 1016 hPa | 0 mm | - | 34 W/m² | - |
| 1788474706 | 27.78° C | 97% | 1016.1 hPa | 0 mm | - | 42 W/m² | - |
| 1788474400 | 27.78° C | 97% | 1015.9 hPa | 0 mm | - | 49 W/m² | - |
| 1788474099 | 27.78° C | 97% | 1016.1 hPa | 0 mm | - | 47 W/m² | - |
| 1788473795 | 27.78° C | 97% | 1016.1 hPa | 0 mm | - | 64 W/m² | - |
| 1788473493 | 27.78° C | 97% | 1016.1 hPa | 0 mm | - | 71 W/m² | - |
| 1788473186 | 27.78° C | 97% | 1015.9 hPa | 0 mm | - | 74 W/m² | - |
| 1788472881 | 27.78° C | 97% | 1015.9 hPa | 0 mm | - | 78 W/m² | - |
| 1788472580 | 27.78° C | 97% | 1015.6 hPa | 0 mm | - | 81 W/m² | - |
| 1788472274 | 27.78° C | 97% | 1015.7 hPa | 0 mm | - | 82 W/m² | - |
| 1788471968 | 27.78° C | 97% | 1015.5 hPa | 0 mm | - | 89 W/m² | - |
| 1788471663 | 27.78° C | 96% | 1015.7 hPa | 0 mm | - | 101 W/m² | - |
| 1788471358 | 27.78° C | 96% | 1015.9 hPa | 0 mm | - | 109 W/m² | - |
| 1788471054 | 27.78° C | 97% | 1015.9 hPa | 0 mm | - | 114 W/m² | - |
| 1788470750 | 27.78° C | 96% | 1015.7 hPa | 0 mm | - | 110 W/m² | - |
| 1788470445 | 27.78° C | 96% | 1015.8 hPa | 0 mm | - | 114 W/m² | - |
| 1788470140 | 27.78° C | 97% | 1015.5 hPa | 0 mm | - | 123 W/m² | - |
| 1788469836 | 27.78° C | 97% | 1015.4 hPa | 0 mm | - | 129 W/m² | - |
* Rain latest hour (hover to see other rain measurements)
** Current wind speed in m/s (hover to see current wind gust speed)